UMKA 1 (RS40S)

Last updated on Tue Aug 25 2026 00:03:14 GMT+0000 (Coordinated Universal Time)

1 57172U 23091G 26236.57170603 .00005307 00000+0 23877-3 0 9999 2 57172 97.4998 295.0160 0011109 235.9852 124.0329 15.21481533174409
UTC large
Height (km)
Speed (km/s)
/
Latitude / Longitude
Inclination (degrees)
Orbital Period (minutes)
Azimuth
Elevation
Range (km)
Doppler Factor

Next 0 passes for location: London (51.5072 / 0.1276)

No passes found over London.
UMKA 1 (RS40S)